• In Deutschland
  • Länderverzeichnis
  • Für 7 Tage
  • Wassertemperatur
  • Satellitenkarten
  • Wetterkarte
  • Widgets
  • user-avatar
    Anmelden

    Stündliche Wetter Prutz

    Heute, 23 April, Sonntag

    Zeit Temperatur Niederschläge Wind Luftdruck Luftfeuchtigkeit
    00:00 +2°C° 0,7 mm 1 m/S 633 mmHg 96%
    01:00 -1°C° 0 mm 2 m/S 633 mmHg 97%
    02:00 -2°C° 0,4 mm 2 m/S 632 mmHg 97%
    03:00 0°C° 0,4 mm 1 m/S 632 mmHg 97%
    04:00 -1°C° 0,4 mm 1 m/S 632 mmHg 97%
    05:00 0°C° 0,2 mm 1 m/S 632 mmHg 96%
    06:00 0°C° 0,2 mm 1 m/S 633 mmHg 95%
    07:00 +1°C° 0 mm 1 m/S 633 mmHg 94%
    08:00 +2°C° 0,1 mm 1 m/S 633 mmHg 92%
    09:00 +3°C° 0,1 mm 1 m/S 633 mmHg 90%
    10:00 +3°C° 0,1 mm 1 m/S 634 mmHg 89%
    11:00 +4°C° 0 mm 1 m/S 634 mmHg 88%
    12:00 +5°C° 0 mm 1 m/S 634 mmHg 87%
    13:00 +5°C° 0 mm 1 m/S 634 mmHg 86%
    14:00 +6°C° 0 mm 1 m/S 634 mmHg 86%
    15:00 +6°C° 0 mm 1 m/S 634 mmHg 86%
    16:00 +6°C° 0 mm 1 m/S 634 mmHg 86%
    17:00 +4°C° 0 mm 1 m/S 633 mmHg 89%
    18:00 +3°C° 0 mm 1 m/S 633 mmHg 92%
    19:00 +1°C° 0 mm 1 m/S 633 mmHg 96%
    20:00 0°C° 0 mm 1 m/S 633 mmHg 96%
    21:00 -1°C° 0 mm 1 m/S 633 mmHg 96%
    22:00 -2°C° 0 mm 1 m/S 633 mmHg 96%
    23:00 -2°C° 0 mm 1 m/S 633 mmHg 95%

    Morgen, 24 April, Montag

    Zeit Temperatur Niederschläge Wind Luftdruck Luftfeuchtigkeit
    00:00 -3°C° 0 mm 1 m/S 633 mmHg 94%
    01:00 -3°C° 0 mm 1 m/S 632 mmHg 93%
    02:00 -3°C° 0 mm 1 m/S 632 mmHg 91%
    03:00 -3°C° 0 mm 1 m/S 632 mmHg 89%
    04:00 -5°C° 0 mm 2 m/S 631 mmHg 88%
    05:00 -4°C° 0 mm 2 m/S 632 mmHg 87%
    06:00 -2°C° 0 mm 2 m/S 632 mmHg 87%
    07:00 +1°C° 0 mm 2 m/S 633 mmHg 86%
    08:00 +4°C° 0 mm 1 m/S 633 mmHg 84%
    09:00 +6°C° 0 mm 1 m/S 633 mmHg 82%
    10:00 +8°C° 0 mm 1 m/S 634 mmHg 80%
    11:00 +8°C° 0 mm 1 m/S 634 mmHg 78%
    12:00 +9°C° 0 mm 1 m/S 633 mmHg 76%
    13:00 +10°C° 0 mm 1 m/S 633 mmHg 74%
    14:00 +10°C° 0,1 mm 1 m/S 633 mmHg 75%
    15:00 +10°C° 0,1 mm 1 m/S 633 mmHg 76%
    16:00 +10°C° 0,1 mm 1 m/S 632 mmHg 76%
    17:00 +8°C° 0,2 mm 1 m/S 631 mmHg 82%
    18:00 +6°C° 0,2 mm 1 m/S 631 mmHg 88%
    19:00 +4°C° 0,2 mm 1 m/S 630 mmHg 94%
    20:00 +4°C° 0,1 mm 1 m/S 630 mmHg 95%
    21:00 +2°C° 0,1 mm 2 m/S 630 mmHg 95%
    22:00 +2°C° 0,1 mm 2 m/S 630 mmHg 95%
    23:00 +2°C° 0 mm 2 m/S 630 mmHg 95%

    übermorgen, 25 April, Dienstag

    Zeit Temperatur Niederschläge Wind Luftdruck Luftfeuchtigkeit
    00:00 +2°C° 0 mm 2 m/S 629 mmHg 95%
    01:00 +2°C° 0 mm 2 m/S 629 mmHg 95%
    02:00 +1°C° 0 mm 2 m/S 629 mmHg 94%
    03:00 +1°C° 0 mm 2 m/S 628 mmHg 94%
    04:00 +1°C° 0 mm 2 m/S 628 mmHg 94%
    05:00 +2°C° 0 mm 2 m/S 628 mmHg 92%
    06:00 +3°C° 0 mm 2 m/S 628 mmHg 90%
    07:00 +4°C° 0 mm 2 m/S 628 mmHg 89%
    08:00 +5°C° 0,1 mm 2 m/S 628 mmHg 84%
    09:00 +7°C° 0,1 mm 2 m/S 628 mmHg 80%
    10:00 +8°C° 0,1 mm 2 m/S 629 mmHg 76%
    11:00 +8°C° 0,4 mm 2 m/S 628 mmHg 76%
    12:00 +9°C° 0,4 mm 2 m/S 628 mmHg 77%
    13:00 +9°C° 0,4 mm 2 m/S 628 mmHg 77%
    14:00 +9°C° 0,9 mm 2 m/S 627 mmHg 80%
    15:00 +8°C° 0,9 mm 2 m/S 627 mmHg 83%
    16:00 +7°C° 0,9 mm 2 m/S 627 mmHg 87%
    17:00 +6°C° 1,7 mm 2 m/S 626 mmHg 90%
    18:00 +6°C° 1,7 mm 1 m/S 626 mmHg 94%
    19:00 +5°C° 1,7 mm 1 m/S 626 mmHg 97%
    20:00 +4°C° 1,9 mm 1 m/S 626 mmHg 97%
    21:00 +4°C° 1,9 mm 1 m/S 626 mmHg 98%
    22:00 +4°C° 1,9 mm 1 m/S 626 mmHg 98%
    23:00 +3°C° 1,8 mm 1 m/S 626 mmHg 98%

    26 April, Mittwoch

    Zeit Temperatur Niederschläge Wind Luftdruck Luftfeuchtigkeit
    00:00 +3°C° 1,8 mm 1 m/S 626 mmHg 98%
    01:00 +2°C° 1,8 mm 1 m/S 626 mmHg 98%
    02:00 +2°C° 1,9 mm 1 m/S 625 mmHg 98%
    03:00 +1°C° 1,9 mm 1 m/S 625 mmHg 98%
    04:00 +1°C° 1,9 mm 1 m/S 625 mmHg 98%
    05:00 0°C° 1,7 mm 1 m/S 625 mmHg 98%
    06:00 0°C° 1,7 mm 1 m/S 625 mmHg 98%
    07:00 0°C° 1,7 mm 1 m/S 625 mmHg 98%
    08:00 0°C° 1,6 mm 1 m/S 625 mmHg 98%
    09:00 0°C° 1,6 mm 1 m/S 625 mmHg 98%
    10:00 -2°C° 1,6 mm 2 m/S 625 mmHg 98%
    11:00 -2°C° 1,5 mm 2 m/S 625 mmHg 98%
    12:00 -2°C° 1,5 mm 2 m/S 625 mmHg 98%
    13:00 -1°C° 1,5 mm 2 m/S 625 mmHg 98%
    14:00 -1°C° 1 mm 2 m/S 625 mmHg 98%
    15:00 -1°C° 1 mm 2 m/S 625 mmHg 97%
    16:00 -1°C° 1 mm 2 m/S 625 mmHg 97%
    17:00 -2°C° 0,6 mm 2 m/S 625 mmHg 98%
    18:00 -2°C° 0,6 mm 2 m/S 624 mmHg 98%
    19:00 -1°C° 0,6 mm 1 m/S 624 mmHg 98%
    20:00 -1°C° 0,7 mm 1 m/S 624 mmHg 98%
    21:00 -2°C° 0,7 mm 1 m/S 624 mmHg 98%
    22:00 -2°C° 0,7 mm 1 m/S 624 mmHg 98%
    23:00 -3°C° 0,7 mm 1 m/S 624 mmHg 98%

    27 April, Donnerstag

    Zeit Temperatur Niederschläge Wind Luftdruck Luftfeuchtigkeit
    00:00 -3°C° 0,7 mm 1 m/S 624 mmHg 98%
    01:00 -3°C° 0,7 mm 1 m/S 624 mmHg 98%
    02:00 -4°C° 0,6 mm 1 m/S 623 mmHg 98%
    03:00 -4°C° 0,6 mm 1 m/S 623 mmHg 98%
    04:00 -4°C° 0,6 mm 1 m/S 623 mmHg 98%
    05:00 -4°C° 0,7 mm 1 m/S 623 mmHg 97%
    06:00 -3°C° 0,7 mm 1 m/S 624 mmHg 97%
    07:00 -2°C° 0,7 mm 1 m/S 624 mmHg 97%
    08:00 -2°C° 1 mm 1 m/S 624 mmHg 97%
    09:00 -2°C° 1 mm 1 m/S 625 mmHg 97%
    10:00 -3°C° 1 mm 2 m/S 625 mmHg 97%
    11:00 -3°C° 1,1 mm 2 m/S 625 mmHg 96%
    12:00 -3°C° 1,1 mm 2 m/S 625 mmHg 96%
    13:00 -3°C° 1,1 mm 2 m/S 625 mmHg 96%
    14:00 -3°C° 1 mm 2 m/S 625 mmHg 96%
    15:00 -3°C° 1 mm 2 m/S 625 mmHg 97%
    16:00 -3°C° 1 mm 2 m/S 625 mmHg 97%
    17:00 -3°C° 0,8 mm 2 m/S 625 mmHg 97%
    18:00 -4°C° 0,8 mm 2 m/S 625 mmHg 98%
    19:00 -4°C° 0,8 mm 2 m/S 626 mmHg 98%
    20:00 -3°C° 0,7 mm 1 m/S 626 mmHg 98%
    21:00 -3°C° 0,7 mm 1 m/S 626 mmHg 98%
    22:00 -3°C° 0,7 mm 1 m/S 626 mmHg 98%
    23:00 -3°C° 0,7 mm 1 m/S 626 mmHg 98%

    28 April, Freitag

    Zeit Temperatur Niederschläge Wind Luftdruck Luftfeuchtigkeit
    00:00 -4°C° 0,7 mm 1 m/S 626 mmHg 98%
    01:00 -4°C° 0,7 mm 1 m/S 626 mmHg 98%
    02:00 -4°C° 0,9 mm 1 m/S 626 mmHg 98%
    03:00 -4°C° 0,9 mm 1 m/S 626 mmHg 98%
    04:00 -4°C° 0,9 mm 1 m/S 627 mmHg 98%
    05:00 -5°C° 1,1 mm 2 m/S 627 mmHg 98%
    06:00 -5°C° 1,1 mm 2 m/S 627 mmHg 97%
    07:00 -5°C° 1,1 mm 2 m/S 627 mmHg 97%
    08:00 -4°C° 0,7 mm 2 m/S 628 mmHg 97%
    09:00 -4°C° 0,7 mm 2 m/S 628 mmHg 97%
    10:00 -4°C° 0,7 mm 3 m/S 629 mmHg 97%
    11:00 -4°C° 0,5 mm 3 m/S 629 mmHg 96%
    12:00 -4°C° 0,5 mm 3 m/S 629 mmHg 96%
    13:00 -2°C° 0,5 mm 3 m/S 629 mmHg 96%
    14:00 -2°C° 0,3 mm 3 m/S 629 mmHg 96%
    15:00 -3°C° 0,3 mm 2 m/S 630 mmHg 96%
    16:00 -3°C° 0,3 mm 2 m/S 630 mmHg 96%
    17:00 -3°C° 0,2 mm 2 m/S 630 mmHg 96%
    18:00 -4°C° 0,2 mm 2 m/S 630 mmHg 96%
    19:00 -5°C° 0,2 mm 2 m/S 630 mmHg 97%
    20:00 -6°C° 0,3 mm 2 m/S 630 mmHg 97%
    21:00 -7°C° 0,3 mm 2 m/S 630 mmHg 97%
    22:00 -7°C° 0,3 mm 1 m/S 630 mmHg 97%
    23:00 -7°C° 0,2 mm 1 m/S 630 mmHg 97%
    Mehr zeigen